Clarinda, IA

5:12 AM CST on December 12, 2017 (GMT -0600)
Schenck

Weather History for KICL - December, 2012

Change the Weather History Date:

Monday, December 3, 2012

  Actual Average Record
Temperature  
Mean Temperature 50 °F -  
Max Temperature 64 °F 45 °F 66 °F (1998)
Min Temperature 35 °F 26 °F 12 °F (2006)
Degree Days  
Heating Degree Days 16    
Moisture  
Dew Point 43 °F    
Average Humidity 72    
Maximum Humidity 94    
Minimum Humidity 45    
Precipitation  
Precipitation 0.00 in - - ()
Sea Level Pressure  
Sea Level Pressure 29.81 in    
Wind  
Wind Speed 8 mph (WSW)    
Max Wind Speed 18 mph    
Max Gust Speed 28 mph    
Visibility 9 miles    
Events      
Averages and records for this station are not official NWS values.
T = Trace of Precipitation, MM = Missing Value Source: NWS Daily Summary

Daily Weather History Graph

Daily Weather History Graph

Search for Another Location

Airport or City:

Trip Planner

Search our weather history database for the weather conditions in past years. The results will help you decide how hot, cold, wet, or windy it might be!

Date:

Astronomy

Dec. 03, 2012 Rise Set
Actual Time 7:27 AM CST 4:52 PM CST
Civil Twilight 6:56 AM CST 5:23 PM CST
Nautical Twilight 6:22 AM CST 5:57 PM CST
Astronomical Twilight 5:49 AM CST 6:30 PM CST
Moon 9:41 PM CST (12/3) 10:50 AM CST (12/3)
Length of Visible Light 10h 26m
Length of Day
9h 25m
Waning Gibbous, 78% of the Moon is Illuminated
Dec 3
Waning Gibbous
Dec 6
Last Quarter
Dec 13
New
Dec 19
First Quarter
Dec 28
Full

Hourly Weather History & Observations

Time (CST) Temp. Windchill Dew Point Humidity Pressure Visibility Wind Dir Wind Speed Gust Speed Precip Events Conditions
12:15 AM 46.4 °F 42.9 °F 44.6 °F 93% 29.82 in 3.0 mi SSE 6.9 mph - N/A   Mostly Cloudy
12:35 AM 46.4 °F 42.9 °F 44.6 °F 93% 29.81 in 3.0 mi SSE 6.9 mph - N/A   Scattered Clouds
12:55 AM 48.2 °F - 46.4 °F 93% 29.79 in 4.0 mi SSE 5.8 mph - N/A   Scattered Clouds
1:15 AM 48.2 °F - 46.4 °F 93% 29.78 in 5.0 mi SSE 5.8 mph - N/A   Scattered Clouds
1:35 AM 48.2 °F - 46.4 °F 93% 29.77 in 5.0 mi South 6.9 mph - N/A   Clear
1:55 AM 48.2 °F - 46.4 °F 93% 29.76 in 5.0 mi SSE 6.9 mph - N/A   Clear
2:15 AM 50.0 °F - 46.4 °F 87% 29.75 in 5.0 mi SSE 6.9 mph - N/A   Clear
2:35 AM 50.0 °F - 48.2 °F 94% 29.74 in 5.0 mi SSE 5.8 mph - N/A   Clear
2:55 AM 51.8 °F - 48.2 °F 88% 29.73 in 5.0 mi SSE 8.1 mph - N/A   Clear
3:15 AM 51.8 °F - 48.2 °F 88% 29.72 in 5.0 mi SSE 6.9 mph - N/A   Clear
3:35 AM 51.8 °F - 48.2 °F 88% 29.70 in 5.0 mi SSE 9.2 mph - N/A   Clear
3:55 AM 51.8 °F - 50.0 °F 94% 29.69 in 7.0 mi SSE 8.1 mph - N/A   Clear
4:15 AM 51.8 °F - 48.2 °F 88% 29.69 in 7.0 mi SSE 5.8 mph - N/A   Clear
4:35 AM 53.6 °F - 50.0 °F 88% 29.67 in 7.0 mi SSE 10.4 mph - N/A   Clear
4:55 AM 53.6 °F - 50.0 °F 88% 29.66 in 7.0 mi SSE 8.1 mph - N/A   Clear
5:15 AM 53.6 °F - 50.0 °F 88% 29.65 in 7.0 mi SSE 8.1 mph - N/A   Clear
5:35 AM 53.6 °F - 51.8 °F 94% 29.65 in 7.0 mi South 10.4 mph - N/A   Clear
5:55 AM 55.4 °F - 51.8 °F 88% 29.65 in 10.0 mi South 10.4 mph - N/A   Clear
6:15 AM 55.4 °F - 51.8 °F 88% 29.66 in 10.0 mi South 9.2 mph - N/A   Clear
6:35 AM 55.4 °F - 51.8 °F 88% 29.66 in 10.0 mi South 9.2 mph - N/A   Clear
6:55 AM 55.4 °F - 53.6 °F 94% 29.66 in 10.0 mi South 8.1 mph - N/A   Clear
7:15 AM 55.4 °F - 51.8 °F 88% 29.67 in 10.0 mi South 5.8 mph - N/A   Clear
7:35 AM 55.4 °F - 51.8 °F 88% 29.66 in 7.0 mi South 6.9 mph - N/A   Clear
7:55 AM 55.4 °F - 51.8 °F 88% 29.66 in 7.0 mi South 5.8 mph - N/A   Clear
8:15 AM 55.4 °F - 51.8 °F 88% 29.67 in 7.0 mi SSW 3.5 mph - N/A   Clear
8:35 AM 57.2 °F - 53.6 °F 88% 29.66 in 10.0 mi South 8.1 mph - N/A   Scattered Clouds
9:15 AM 60.8 °F - 55.4 °F 82% 29.67 in 10.0 mi South 11.5 mph - N/A   Clear
9:35 AM 60.8 °F - 55.4 °F 82% 29.66 in 10.0 mi South 13.8 mph 19.6 mph N/A   Scattered Clouds
9:55 AM 62.6 °F - 55.4 °F 77% 29.67 in 10.0 mi SSW 13.8 mph 21.9 mph N/A   Scattered Clouds
10:15 AM 62.6 °F - 55.4 °F 77% 29.68 in 10.0 mi SSW 15.0 mph 23.0 mph N/A   Scattered Clouds
10:35 AM 64.4 °F - 55.4 °F 73% 29.68 in 10.0 mi SSW 17.3 mph 23.0 mph N/A   Mostly Cloudy
10:55 AM 62.6 °F - 53.6 °F 72% 29.69 in 10.0 mi SW 12.7 mph 19.6 mph N/A   Mostly Cloudy
11:15 AM 62.6 °F - 51.8 °F 68% 29.69 in 10.0 mi WSW 15.0 mph 21.9 mph N/A   Overcast
11:35 AM 64.4 °F - 51.8 °F 64% 29.69 in 10.0 mi WSW 18.4 mph 27.6 mph N/A   Scattered Clouds
11:55 AM 64.4 °F - 51.8 °F 64% 29.70 in 10.0 mi WSW 18.4 mph 21.9 mph N/A   Mostly Cloudy
12:15 PM 64.4 °F - 48.2 °F 56% 29.71 in 10.0 mi West 17.3 mph 23.0 mph N/A   Scattered Clouds
12:35 PM 64.4 °F - 48.2 °F 56% 29.70 in 10.0 mi West 11.5 mph 18.4 mph N/A   Clear
12:55 PM 62.6 °F - 48.2 °F 59% 29.72 in 10.0 mi West 15.0 mph 18.4 mph N/A   Clear
1:15 PM 60.8 °F - 44.6 °F 55% 29.74 in 10.0 mi WNW 18.4 mph 24.2 mph N/A   Scattered Clouds
1:35 PM 57.2 °F - 42.8 °F 59% 29.76 in 10.0 mi WNW 9.2 mph - N/A   Clear
1:55 PM 57.2 °F - 39.2 °F 51% 29.77 in 10.0 mi NW 11.5 mph - N/A   Clear
2:15 PM 57.2 °F - 37.4 °F 48% 29.79 in 10.0 mi NNW 12.7 mph 17.3 mph N/A   Clear
2:35 PM 59.0 °F - 39.2 °F 48% 29.80 in 10.0 mi NNW 15.0 mph 20.7 mph N/A   Clear
2:55 PM 59.0 °F - 37.4 °F 45% 29.81 in 10.0 mi NNW 15.0 mph - N/A   Clear
3:15 PM 59.0 °F - 39.2 °F 48% 29.82 in 10.0 mi North 16.1 mph - N/A   Clear
3:35 PM 59.0 °F - 37.4 °F 45% 29.84 in 10.0 mi NNW 12.7 mph - N/A   Clear
3:55 PM 57.2 °F - 37.4 °F 48% 29.85 in 10.0 mi North 12.7 mph - N/A   Clear
4:15 PM 57.2 °F - 37.4 °F 48% 29.87 in 10.0 mi NNW 12.7 mph 17.3 mph N/A   Clear
4:35 PM 55.4 °F - 35.6 °F 47% 29.88 in 10.0 mi North 6.9 mph - N/A   Clear
4:55 PM 53.6 °F - 35.6 °F 51% 29.90 in 10.0 mi NNW 5.8 mph - N/A   Clear
5:15 PM 51.8 °F - 37.4 °F 58% 29.91 in 10.0 mi NW 4.6 mph - N/A   Clear
5:35 PM 51.8 °F - 35.6 °F 54% 29.93 in 10.0 mi NW 6.9 mph - N/A   Clear
5:55 PM 51.8 °F - 35.6 °F 54% 29.94 in 10.0 mi NW 6.9 mph - N/A   Clear
6:15 PM 51.8 °F - 33.8 °F 50% 29.95 in 10.0 mi NNW 8.1 mph - N/A   Clear
6:35 PM 50.0 °F - 32.0 °F 50% 29.96 in 10.0 mi NNW 8.1 mph - N/A   Clear
6:55 PM 48.2 °F - 32.0 °F 54% 29.98 in 10.0 mi NW 6.9 mph - N/A   Clear
7:15 PM 48.2 °F - 30.2 °F 50% 29.99 in 10.0 mi NW 6.9 mph - N/A   Scattered Clouds
7:35 PM 48.2 °F - 30.2 °F 50% 30.00 in 10.0 mi NW 6.9 mph - N/A   Scattered Clouds
7:55 PM 48.2 °F - 30.2 °F 50% 30.00 in 10.0 mi NW 6.9 mph - N/A   Clear
8:15 PM 44.6 °F - 30.2 °F 57% 30.01 in 10.0 mi Calm Calm - N/A   Clear
8:35 PM 42.8 °F 41.1 °F 30.2 °F 61% 30.01 in 10.0 mi NNE 3.5 mph - N/A   Clear
8:55 PM 39.2 °F 37.0 °F 30.2 °F 70% 30.02 in 10.0 mi North 3.5 mph - N/A   Clear
9:15 PM 41.0 °F 39.0 °F 30.2 °F 65% 30.02 in 10.0 mi North 3.5 mph - N/A   Clear
9:35 PM 37.4 °F 34.9 °F 30.2 °F 75% 30.03 in 10.0 mi North 3.5 mph - N/A   Clear
9:55 PM 37.4 °F - 30.2 °F 75% 30.05 in 10.0 mi Calm Calm - N/A   Clear
10:15 PM 35.6 °F 31.7 °F 28.4 °F 75% 30.05 in 10.0 mi North 4.6 mph - N/A   Clear
10:35 PM 37.4 °F 33.8 °F 30.2 °F 75% 30.05 in 10.0 mi NNE 4.6 mph - N/A   Clear
10:55 PM 35.6 °F 31.7 °F 28.4 °F 75% 30.05 in 10.0 mi NE 4.6 mph - N/A   Clear
11:15 PM 37.4 °F 33.8 °F 30.2 °F 75% 30.05 in 10.0 mi NNE 4.6 mph - N/A   Clear
11:35 PM 35.6 °F - 28.4 °F 75% 30.06 in 10.0 mi Calm Calm - N/A   Clear
11:55 PM 35.6 °F 32.8 °F 28.4 °F 75% 30.07 in 10.0 mi NNE 3.5 mph - N/A   Clear